Regional Weather Roundup
Issued by NWS

Home | Current Version | Previous Version | Graphics & Text | Print | Product List | Glossary On
Versions: 1 2 3 4 5 6 7 8 9 10 11 12 13 14 15 16 17 18 19 20 21 22 23 24 25 26 27 28 29 30 31 32 33 34 35 36 37 38 39 40 41 42 43 44 45 46 47 48 49 50
000
ASUS43 KBIS 261910
RWRND

NORTH DAKOTA REGIONAL WEATHER ROUNDUP
NATIONAL WEATHER SERVICE BISMARCK ND
100 PM CST FRI DEC 26 2014

NOTE: "FAIR" INDICATES FEW OR NO CLOUDS BELOW 12,000 FEET WITH NO
SIGNIFICANT WEATHER AND/OR OBSTRUCTIONS TO VISIBILITY.


NDZ001>003-009>011-017-262000-
NORTHWEST NORTH DAKOTA

CITY           SKY/WX    TMP DP  RH WIND       PRES   REMARKS
WILLISTON      CLOUDY    17  12  80 CALM      30.16F
MINOT          PTSUNNY   12   4  70 W8        30.17F WCI   0
MINOT AFB      CLOUDY     9   6  89 N5        30.18F WCI   0
$$

NDZ018>021-031>035-040>046-262000-
SOUTHWEST NORTH DAKOTA

CITY           SKY/WX    TMP DP  RH WIND       PRES   REMARKS
BISMARCK       CLOUDY    18  12  77 NW8       30.17F WCI   8
DICKINSON      FAIR      22  13  68 NW6       30.08F WCI  14
GARRISON         N/A     13   7  77 NW7       30.16F WCI   3
HETTINGER ARPT PTSUNNY   22  12  65 N10       30.11F WCI  11
$$

NDZ004>008-012>016-024-026-027-054-262000-
NORTHEAST NORTH DAKOTA

CITY           SKY/WX    TMP DP  RH WIND       PRES   REMARKS
GRAND FORKS    CLOUDY    21  13  71 NW13      30.18F WCI   9
GRND FRKS AFB  CLOUDY    18  13  82 NW12      30.19S WCI   5
DEVILS LAKE    FAIR       7  -2  66 NW13      30.17F WCI  -9
$$

NDZ022-023-025-028>030-036>039-047>053-262000-
SOUTHEAST NORTH DAKOTA

CITY           SKY/WX    TMP DP  RH WIND       PRES   REMARKS
FARGO          CLOUDY    25  18  74 NW12      30.15F WCI  14
JAMESTOWN      CLOUDY    11   5  77 NW13      30.16F WCI  -4
$$




USA.gov is the U.S. government's official web portal to all federal, state and local government web resources and services.